Time,TemperatureF,DewpointF,PressureIn,WindDirection,WindDirectionDegrees,WindSpeedMPH,WindSpeedGustMPH,Humidity,HourlyPrecipIn,Conditions,Clouds,dailyrainin,SolarRadiationWatts/m^2,SoftwareType,DateUTC
2013-01-13 00:02:00,28.0,18.0,30.04,NNW,348,20.0,22.0,67,0.00,,,0.00,0.000000,,2013-01-13 08:02:00,
2013-01-13 00:11:00,28.0,18.0,30.04,NNW,348,20.0,22.0,67,0.00,,,0.00,0.000000,,2013-01-13 08:11:00,
2013-01-13 00:42:00,27.0,19.0,30.04,North,354,24.0,-999.0,71,0.00,,,0.00,0.000000,,2013-01-13 08:42:00,
2013-01-13 00:52:00,27.0,19.0,30.04,North,354,24.0,-999.0,71,0.00,,,0.00,0.000000,,2013-01-13 08:52:00,
2013-01-13 01:02:00,27.0,19.0,30.04,North,354,24.0,-999.0,71,0.00,,,0.00,0.000000,,2013-01-13 09:02:00,
2013-01-13 01:11:00,27.0,19.0,30.04,North,354,24.0,-999.0,71,0.00,,,0.00,0.000000,,2013-01-13 09:11:00,
2013-01-13 01:32:00,26.0,9.0,30.03,North,350,27.0,-999.0,48,0.00,,,0.00,0.000000,,2013-01-13 09:32:00,
2013-01-13 01:42:00,26.0,9.0,30.03,North,350,27.0,-999.0,48,0.00,,,0.00,0.000000,,2013-01-13 09:42:00,
2013-01-13 01:52:00,26.0,9.0,30.03,North,350,27.0,-999.0,48,0.00,,,0.00,0.000000,,2013-01-13 09:52:00,
2013-01-13 02:02:00,26.0,9.0,30.03,North,350,27.0,-999.0,48,0.00,,,0.00,0.000000,,2013-01-13 10:02:00,
2013-01-13 02:11:00,26.0,9.0,30.03,North,350,27.0,-999.0,48,0.00,,,0.00,0.000000,,2013-01-13 10:11:00,
2013-01-13 02:32:00,27.0,7.0,30.04,North,351,29.0,31.0,42,0.00,,,0.00,0.000000,,2013-01-13 10:32:00,
2013-01-13 02:42:00,27.0,7.0,30.04,North,351,29.0,31.0,42,0.00,,,0.00,0.000000,,2013-01-13 10:42:00,
2013-01-13 02:52:00,27.0,7.0,30.04,North,351,29.0,31.0,42,0.00,,,0.00,0.000000,,2013-01-13 10:52:00,
2013-01-13 03:02:00,27.0,7.0,30.04,North,351,29.0,31.0,42,0.00,,,0.00,0.000000,,2013-01-13 11:02:00,
2013-01-13 03:11:00,27.0,7.0,30.04,North,351,29.0,31.0,42,0.00,,,0.00,0.000000,,2013-01-13 11:11:00,
2013-01-13 03:42:00,26.0,9.0,30.04,North,5,33.0,40.0,47,0.00,,,0.00,0.000000,,2013-01-13 11:42:00,
2013-01-13 03:52:00,26.0,9.0,30.04,North,5,33.0,40.0,47,0.00,,,0.00,0.000000,,2013-01-13 11:52:00,
2013-01-13 04:02:00,26.0,9.0,30.04,North,5,33.0,40.0,47,0.00,,,0.00,0.000000,,2013-01-13 12:02:00,
2013-01-13 04:12:00,26.0,9.0,30.04,North,5,33.0,40.0,47,0.00,,,0.00,0.000000,,2013-01-13 12:12:00,
2013-01-13 04:33:00,24.0,9.0,30.03,North,1,27.0,40.0,52,0.00,,,-99.99,0.000000,,2013-01-13 12:33:00,
2013-01-13 04:42:00,24.0,9.0,30.03,North,1,27.0,40.0,52,0.00,,,-99.99,0.000000,,2013-01-13 12:42:00,
2013-01-13 04:53:00,24.0,9.0,30.03,North,1,27.0,40.0,52,0.00,,,-99.99,0.000000,,2013-01-13 12:53:00,
2013-01-13 05:02:00,24.0,9.0,30.03,North,1,27.0,40.0,52,0.00,,,-99.99,0.000000,,2013-01-13 13:02:00,
2013-01-13 05:12:00,24.0,9.0,30.03,North,1,27.0,40.0,52,0.00,,,-99.99,0.000000,,2013-01-13 13:12:00,
2013-01-13 05:33:00,29.0,4.0,30.04,North,359,24.0,32.0,34,0.00,,,0.00,0.000000,,2013-01-13 13:33:00,
2013-01-13 05:43:00,29.0,4.0,30.04,North,359,24.0,32.0,34,0.00,,,0.00,0.000000,,2013-01-13 13:43:00,
2013-01-13 05:53:00,29.0,4.0,30.04,North,359,24.0,32.0,34,0.00,,,0.00,0.000000,,2013-01-13 13:53:00,
2013-01-13 06:02:00,29.0,4.0,30.04,North,359,24.0,32.0,34,0.00,,,0.00,0.000000,,2013-01-13 14:02:00,
2013-01-13 06:12:00,29.0,4.0,30.04,North,359,24.0,32.0,34,0.00,,,0.00,0.000000,,2013-01-13 14:12:00,
2013-01-13 06:33:00,28.0,3.0,30.05,North,2,22.0,27.0,33,0.00,,,-99.99,0.000000,,2013-01-13 14:33:00,
2013-01-13 06:43:00,28.0,3.0,30.05,North,2,22.0,27.0,33,0.00,,,-99.99,0.000000,,2013-01-13 14:43:00,
2013-01-13 06:53:00,28.0,3.0,30.05,North,2,22.0,27.0,33,0.00,,,-99.99,0.000000,,2013-01-13 14:53:00,
2013-01-13 07:02:00,28.0,3.0,30.05,North,2,22.0,27.0,33,0.00,,,-99.99,0.000000,,2013-01-13 15:02:00,
2013-01-13 07:12:00,28.0,3.0,30.05,North,2,22.0,27.0,33,0.00,,,-99.99,0.000000,,2013-01-13 15:12:00,
2013-01-13 07:33:00,28.0,5.0,30.08,North,357,26.0,28.0,37,0.00,,,0.00,0.000000,,2013-01-13 15:33:00,
2013-01-13 07:43:00,28.0,5.0,30.08,North,357,26.0,28.0,37,0.00,,,0.00,0.000000,,2013-01-13 15:43:00,
2013-01-13 07:53:00,28.0,5.0,30.08,North,357,26.0,28.0,37,0.00,,,0.00,0.000000,,2013-01-13 15:53:00,
2013-01-13 08:03:00,28.0,5.0,30.08,North,357,26.0,28.0,37,0.00,,,0.00,0.000000,,2013-01-13 16:03:00,
2013-01-13 08:12:00,28.0,5.0,30.08,North,357,26.0,28.0,37,0.00,,,0.00,0.000000,,2013-01-13 16:12:00,
2013-01-13 08:33:00,29.0,1.0,30.08,North,3,20.0,28.0,30,0.00,,,0.00,0.000000,,2013-01-13 16:33:00,
2013-01-13 08:43:00,29.0,1.0,30.08,North,3,20.0,28.0,30,0.00,,,0.00,0.000000,,2013-01-13 16:43:00,
2013-01-13 08:53:00,29.0,1.0,30.08,North,3,20.0,28.0,30,0.00,,,0.00,0.000000,,2013-01-13 16:53:00,
2013-01-13 09:03:00,29.0,1.0,30.08,North,3,20.0,28.0,30,0.00,,,0.00,0.000000,,2013-01-13 17:03:00,
2013-01-13 09:12:00,29.0,1.0,30.08,North,3,20.0,28.0,30,0.00,,,0.00,0.000000,,2013-01-13 17:12:00,
2013-01-13 09:43:00,27.0,1.0,30.09,North,355,18.0,24.0,32,0.00,,,-99.99,29.000000,,2013-01-13 17:43:00,
2013-01-13 09:53:00,27.0,1.0,30.09,North,355,18.0,24.0,32,0.00,,,-99.99,29.000000,,2013-01-13 17:53:00,
2013-01-13 10:02:00,27.0,1.0,30.09,North,355,18.0,24.0,32,0.00,,,-99.99,29.000000,,2013-01-13 18:02:00,
2013-01-13 10:12:00,27.0,1.0,30.09,North,355,18.0,24.0,32,0.00,,,-99.99,29.000000,,2013-01-13 18:12:00,
2013-01-13 10:43:00,29.0,-8.0,30.10,NNW,339,21.0,27.0,19,0.00,,,0.00,206.000000,,2013-01-13 18:43:00,
2013-01-13 10:53:00,29.0,-8.0,30.10,NNW,339,21.0,27.0,19,0.00,,,0.00,206.000000,,2013-01-13 18:53:00,
2013-01-13 11:43:00,26.0,2.0,30.09,NNW,328,19.0,25.0,35,0.00,,,0.00,345.000000,,2013-01-13 19:43:00,
2013-01-13 11:53:00,26.0,2.0,30.09,NNW,328,19.0,25.0,35,0.00,,,0.00,345.000000,,2013-01-13 19:53:00,
2013-01-13 12:02:00,26.0,2.0,30.09,NNW,328,19.0,25.0,35,0.00,,,0.00,345.000000,,2013-01-13 20:02:00,
2013-01-13 12:12:00,26.0,2.0,30.09,NNW,328,19.0,25.0,35,0.00,,,0.00,345.000000,,2013-01-13 20:12:00,
2013-01-13 12:43:00,26.0,3.0,30.07,NNW,327,18.0,24.0,37,0.00,,,-99.99,437.000000,,2013-01-13 20:43:00,
2013-01-13 12:53:00,26.0,3.0,30.07,NNW,327,18.0,24.0,37,0.00,,,-99.99,437.000000,,2013-01-13 20:53:00,
2013-01-13 13:02:00,26.0,3.0,30.07,NNW,327,18.0,24.0,37,0.00,,,-99.99,437.000000,,2013-01-13 21:02:00,
2013-01-13 13:12:00,26.0,3.0,30.07,NNW,327,18.0,24.0,37,0.00,,,-99.99,437.000000,,2013-01-13 21:12:00,
2013-01-13 13:33:00,27.0,2.0,30.06,NNW,333,20.0,34.0,33,0.00,,,0.00,528.000000,,2013-01-13 21:33:00,
2013-01-13 13:43:00,27.0,2.0,30.06,NNW,333,20.0,34.0,33,0.00,,,0.00,528.000000,,2013-01-13 21:43:00,
2013-01-13 13:53:00,27.0,2.0,30.06,NNW,333,20.0,34.0,33,0.00,,,0.00,528.000000,,2013-01-13 21:53:00,
2013-01-13 14:02:00,27.0,2.0,30.06,NNW,333,20.0,34.0,33,0.00,,,0.00,528.000000,,2013-01-13 22:02:00,
2013-01-13 14:12:00,27.0,2.0,30.06,NNW,333,20.0,34.0,33,0.00,,,0.00,528.000000,,2013-01-13 22:12:00,
2013-01-13 15:43:00,29.0,7.0,30.05,NW,323,13.0,25.0,39,-99.99,,,0.00,520.000000,,2013-01-13 23:43:00,
2013-01-13 15:53:00,29.0,7.0,30.05,NW,323,13.0,25.0,39,-99.99,,,0.00,520.000000,,2013-01-13 23:53:00,
2013-01-13 16:02:00,29.0,7.0,30.05,NW,323,13.0,25.0,39,-99.99,,,0.00,520.000000,,2013-01-14 00:02:00,
2013-01-13 16:12:00,29.0,7.0,30.05,NW,323,13.0,25.0,39,-99.99,,,0.00,520.000000,,2013-01-14 00:12:00,
2013-01-13 16:43:00,29.0,6.0,30.05,NNW,344,21.0,27.0,37,0.00,,,0.00,446.000000,,2013-01-14 00:43:00,
2013-01-13 16:53:00,29.0,6.0,30.05,NNW,344,21.0,27.0,37,0.00,,,0.00,446.000000,,2013-01-14 00:53:00,
2013-01-13 17:02:00,29.0,6.0,30.05,NNW,344,21.0,27.0,37,0.00,,,0.00,446.000000,,2013-01-14 01:02:00,
2013-01-13 17:12:00,29.0,6.0,30.05,NNW,344,21.0,27.0,37,0.00,,,0.00,446.000000,,2013-01-14 01:12:00,
2013-01-13 17:42:00,30.0,10.0,30.04,NNW,338,24.0,30.0,43,0.00,,,0.00,297.000000,,2013-01-14 01:42:00,
2013-01-13 17:52:00,30.0,10.0,30.04,NNW,338,24.0,30.0,43,0.00,,,0.00,297.000000,,2013-01-14 01:52:00,
2013-01-13 18:02:00,30.0,10.0,30.04,NNW,338,24.0,30.0,43,0.00,,,0.00,297.000000,,2013-01-14 02:02:00,
2013-01-13 18:12:00,30.0,10.0,30.04,NNW,338,24.0,30.0,43,0.00,,,0.00,297.000000,,2013-01-14 02:12:00,
2013-01-13 18:43:00,29.0,8.0,30.05,NNW,340,24.0,32.0,40,0.00,,,0.00,114.000000,,2013-01-14 02:43:00,
2013-01-13 18:53:00,29.0,8.0,30.05,NNW,340,24.0,32.0,40,0.00,,,0.00,114.000000,,2013-01-14 02:53:00,
2013-01-13 19:02:00,29.0,8.0,30.05,NNW,340,24.0,32.0,40,0.00,,,0.00,114.000000,,2013-01-14 03:02:00,
2013-01-13 19:12:00,29.0,8.0,30.05,NNW,340,24.0,32.0,40,0.00,,,0.00,114.000000,,2013-01-14 03:12:00,
2013-01-13 19:33:00,29.0,5.0,30.04,NNW,347,29.0,38.0,36,0.00,,,0.00,2.000000,,2013-01-14 03:33:00,
2013-01-13 19:43:00,29.0,5.0,30.04,NNW,347,29.0,38.0,36,0.00,,,0.00,2.000000,,2013-01-14 03:43:00,
2013-01-13 19:53:00,29.0,5.0,30.04,NNW,347,29.0,38.0,36,0.00,,,0.00,2.000000,,2013-01-14 03:53:00,
2013-01-13 20:02:00,29.0,5.0,30.04,NNW,347,29.0,38.0,36,0.00,,,0.00,2.000000,,2013-01-14 04:02:00,
2013-01-13 20:12:00,29.0,5.0,30.04,NNW,347,29.0,38.0,36,0.00,,,0.00,2.000000,,2013-01-14 04:12:00,
2013-01-13 20:32:00,29.0,5.0,30.04,NNW,347,30.0,40.0,36,0.00,,,0.00,0.000000,,2013-01-14 04:32:00,
2013-01-13 20:42:00,29.0,5.0,30.04,NNW,347,30.0,40.0,36,0.00,,,0.00,0.000000,,2013-01-14 04:42:00,
2013-01-13 20:53:00,29.0,5.0,30.04,NNW,347,30.0,40.0,36,0.00,,,0.00,0.000000,,2013-01-14 04:53:00,
2013-01-13 21:03:00,29.0,5.0,30.04,NNW,347,30.0,40.0,36,0.00,,,0.00,0.000000,,2013-01-14 05:03:00,
2013-01-13 21:12:00,29.0,5.0,30.04,NNW,347,30.0,40.0,36,0.00,,,0.00,0.000000,,2013-01-14 05:12:00,
2013-01-13 21:33:00,27.0,4.0,30.04,NNW,348,33.0,47.0,36,0.00,,,0.00,0.000000,,2013-01-14 05:33:00,
2013-01-13 21:43:00,27.0,4.0,30.04,NNW,348,33.0,47.0,36,0.00,,,0.00,0.000000,,2013-01-14 05:43:00,
2013-01-13 21:53:00,27.0,4.0,30.04,NNW,348,33.0,47.0,36,0.00,,,0.00,0.000000,,2013-01-14 05:53:00,
2013-01-13 22:02:00,27.0,4.0,30.04,NNW,348,33.0,47.0,36,0.00,,,0.00,0.000000,,2013-01-14 06:02:00,
2013-01-13 22:11:00,27.0,4.0,30.04,NNW,348,33.0,47.0,36,0.00,,,0.00,0.000000,,2013-01-14 06:11:00,
2013-01-13 22:33:00,26.0,6.0,30.03,North,353,35.0,50.0,41,0.00,,,0.00,0.000000,,2013-01-14 06:33:00,
2013-01-13 22:43:00,26.0,6.0,30.03,North,353,35.0,50.0,41,0.00,,,0.00,0.000000,,2013-01-14 06:43:00,
2013-01-13 22:52:00,26.0,6.0,30.03,North,353,35.0,50.0,41,0.00,,,0.00,0.000000,,2013-01-14 06:52:00,
2013-01-13 23:02:00,26.0,6.0,30.03,North,353,35.0,50.0,41,0.00,,,0.00,0.000000,,2013-01-14 07:02:00,
2013-01-13 23:12:00,26.0,6.0,30.03,North,353,35.0,50.0,41,0.00,,,0.00,0.000000,,2013-01-14 07:12:00,
2013-01-13 23:33:00,25.0,4.0,30.03,NNW,346,35.0,47.0,40,0.01,,,0.01,0.000000,,2013-01-14 07:33:00,
2013-01-13 23:43:00,25.0,4.0,30.03,NNW,346,35.0,47.0,40,0.01,,,0.01,0.000000,,2013-01-14 07:43:00,
2013-01-13 23:52:00,25.0,4.0,30.03,NNW,346,35.0,47.0,40,0.01,,,0.01,0.000000,,2013-01-14 07:52:00,